Date String (YYYY-MM-DD hh:mm:ss) UTC,Instrument flags,Ambient pressure (hPa),Sample flow (lpm),Bypass flow (lpm),Sample temperature (°C),Ambient temperature (°C),ASC tube jacket temperature (°C),LED temperature (°C),Box temperature (°C),Sample RH (%),Span deviation,Mass concentration (μg/m³),Mass concentration (μg/m³),Mass concentration (μg/m³)
DateTimeUTC,F1_M11,P_M11,Q1_M11,Q2_M11,T1_M11,T2_M11,T3_M11,T4_M11,T5_M11,U1_M11,ZSPAN_M11,X2_M11,X0_M11,X1_M11
2021-12-13 01:00:00,,0821.6,5.00,0.00,26.8,26.1,00.0,35.8,28.6,05.1,0000.0,0000.50,0001.22,0000.40
2021-12-13 01:01:00,,0821.6,5.01,0.00,26.8,26.1,00.0,35.8,28.6,05.1,0000.0,0000.52,0001.48,0000.40
2021-12-13 01:02:00,,0821.6,5.00,0.00,26.8,26.1,00.0,35.8,28.6,05.2,0000.0,0000.52,0001.64,0000.39
2021-12-13 01:03:00,,0821.6,4.98,0.00,26.8,26.1,00.0,35.8,28.6,05.1,0000.0,0000.51,0001.61,0000.38
2021-12-13 01:04:00,,0821.5,5.02,0.00,26.8,26.1,00.0,35.8,28.5,05.1,0000.0,0000.52,0001.31,0000.39
2021-12-13 01:05:00,,0821.5,5.00,0.00,26.8,26.0,00.0,35.8,28.6,05.1,0000.0,0000.52,0001.31,0000.39
2021-12-13 01:06:00,,0821.6,5.00,0.00,26.9,26.0,00.0,35.8,28.6,05.0,0000.0,0000.49,0001.24,0000.39
2021-12-13 01:07:00,,0821.6,5.00,0.00,26.9,26.1,00.0,35.8,28.6,05.0,0000.0,0000.51,0001.30,0000.40
2021-12-13 01:08:00,,0821.5,4.99,0.00,26.8,26.0,00.0,35.8,28.5,05.0,0000.0,0000.51,0001.22,0000.40
2021-12-13 01:09:00,,0821.6,5.00,0.00,26.8,26.0,00.0,35.8,28.5,05.1,0000.0,0000.50,0001.12,0000.39
2021-12-13 01:10:00,,0821.5,5.01,0.00,26.8,26.0,00.0,35.8,28.5,05.2,0000.0,0000.51,0001.83,0000.40
2021-12-13 01:11:00,,0821.6,5.01,0.00,26.8,26.0,00.0,35.8,28.5,05.2,0000.0,0000.50,0002.52,0000.39
2021-12-13 01:12:00,,0821.5,5.00,0.00,26.8,26.0,00.0,35.8,28.5,05.3,0000.0,0000.51,0002.41,0000.40
2021-12-13 01:13:00,,0821.6,5.00,0.00,26.8,26.0,00.0,35.8,28.5,05.3,0000.0,0000.52,0002.25,0000.41
2021-12-13 01:14:00,,0821.5,5.02,0.00,26.8,26.0,00.0,35.8,28.5,05.3,0000.0,0000.54,0002.29,0000.42
2021-12-13 01:15:00,,0821.5,4.99,0.00,26.8,26.0,00.0,35.8,28.5,05.2,0000.0,0000.56,0002.52,0000.42
2021-12-13 01:16:00,,0821.5,5.01,0.00,26.8,25.9,00.0,35.8,28.4,05.3,0000.0,0000.58,0002.59,0000.42
2021-12-13 01:17:00,,0821.5,5.00,0.00,26.8,25.9,00.0,35.8,28.4,05.4,0000.0,0000.59,0002.63,0000.43
2021-12-13 01:18:00,,0821.5,5.01,0.00,26.8,25.9,00.0,35.8,28.4,05.3,0000.0,0000.61,0002.61,0000.43
2021-12-13 01:19:00,,0821.5,4.99,0.00,26.7,25.9,00.0,35.8,28.4,05.3,0000.0,0000.63,0002.63,0000.43
2021-12-13 01:20:00,,0821.5,5.01,0.00,26.7,25.9,00.0,35.8,28.4,05.3,0000.0,0000.65,0002.68,0000.44
2021-12-13 01:21:00,,0821.5,4.99,0.00,26.7,25.9,00.0,35.8,28.4,05.3,0000.0,0000.65,0001.96,0000.44
2021-12-13 01:22:00,,0821.5,5.01,0.00,26.7,25.8,00.0,35.8,28.4,05.3,0000.0,0000.69,0001.34,0000.45
2021-12-13 01:23:00,,0821.5,5.00,0.00,26.7,25.8,00.0,35.8,28.3,05.3,0000.0,0000.70,0001.35,0000.45
2021-12-13 01:24:00,,0821.5,4.99,0.00,26.6,25.8,00.0,35.7,28.3,05.4,0000.0,0000.68,0001.36,0000.45
2021-12-13 01:25:00,,0821.5,5.01,0.00,26.6,25.7,00.0,35.7,28.3,05.4,0000.0,0000.68,0001.36,0000.45
2021-12-13 01:26:00,,0821.6,4.99,0.00,26.6,25.7,00.0,35.7,28.2,05.4,0000.0,0000.67,0001.11,0000.46
2021-12-13 01:27:00,,0821.6,5.01,0.00,26.6,25.7,00.0,35.7,28.2,05.4,0000.0,0000.66,0001.08,0000.46
2021-12-13 01:28:00,,0821.6,5.00,0.00,26.5,25.6,00.0,35.7,28.1,05.4,0000.0,0000.67,0001.07,0000.46
2021-12-13 01:29:00,,0821.6,4.99,0.00,26.5,25.6,00.0,35.7,28.1,05.4,0000.0,0000.64,0001.08,0000.47
2021-12-13 01:30:00,,0821.6,4.99,0.00,26.5,25.6,00.0,35.6,28.1,05.5,0000.0,0000.65,0001.09,0000.49
2021-12-13 01:31:00,,0821.7,5.01,0.00,26.5,25.6,00.0,35.6,28.1,05.4,0000.0,0000.63,0001.05,0000.48
2021-12-13 01:32:00,,0821.6,4.99,0.00,26.5,25.6,00.0,35.6,28.1,05.5,0000.0,0000.65,0001.09,0000.49
2021-12-13 01:33:00,,0821.6,5.01,0.00,26.5,25.6,00.0,35.6,28.1,05.5,0000.0,0000.62,0001.05,0000.50
2021-12-13 01:34:00,,0821.7,4.98,0.00,26.5,25.6,00.0,35.6,28.1,05.5,0000.0,0000.63,0001.02,0000.51
2021-12-13 01:35:00,,0821.7,5.01,0.00,26.5,25.6,00.0,35.6,28.1,05.5,0000.0,0000.64,0001.03,0000.52
2021-12-13 01:36:00,,0821.6,5.00,0.00,26.5,25.6,00.0,35.6,28.2,05.5,0000.0,0000.64,0001.02,0000.53
2021-12-13 01:37:00,,0821.6,5.00,0.00,26.5,25.6,00.0,35.6,28.2,05.5,0000.0,0000.65,0001.03,0000.52
2021-12-13 01:38:00,,0821.7,5.02,0.00,26.5,25.6,00.0,35.5,28.1,05.5,0000.0,0000.66,0001.04,0000.53
2021-12-13 01:39:00,,0821.7,4.99,0.00,26.5,25.7,00.0,35.5,28.1,05.5,0000.0,0000.69,0001.22,0000.53
2021-12-13 01:40:00,,0821.7,5.01,0.00,26.5,25.7,00.0,35.5,28.1,05.5,0000.0,0000.70,0001.21,0000.52
2021-12-13 01:41:00,,0821.7,4.99,0.00,26.5,25.7,00.0,35.5,28.1,05.5,0000.0,0000.71,0001.19,0000.52
2021-12-13 01:42:00,,0821.7,5.01,0.00,26.5,25.6,00.0,35.5,28.1,05.5,0000.0,0000.74,0001.26,0000.52
2021-12-13 01:43:00,,0821.7,5.00,0.00,26.5,25.7,00.0,35.5,28.1,05.5,0000.0,0000.75,0001.30,0000.52
2021-12-13 01:44:00,,0821.7,5.01,0.00,26.5,25.6,00.0,35.5,28.1,05.5,0000.0,0000.79,0001.42,0000.53
2021-12-13 01:45:00,,0821.7,5.01,0.00,26.5,25.6,00.0,35.5,28.1,05.5,0000.0,0000.83,0003.06,0000.52
2021-12-13 01:46:00,,0821.7,5.00,0.00,26.4,25.6,00.0,35.5,28.1,05.5,0000.0,0000.85,0003.25,0000.52
2021-12-13 01:47:00,,0821.7,5.00,0.00,26.4,25.5,00.0,35.5,28.1,05.3,0000.0,0000.83,0003.18,0000.51
2021-12-13 01:48:00,,0821.7,5.00,0.00,26.4,25.5,00.0,35.5,28.0,05.3,0000.0,0000.81,0003.82,0000.51
2021-12-13 01:49:00,,0821.7,5.00,0.00,26.4,25.5,00.0,35.5,28.0,05.2,0000.0,0000.81,0004.21,0000.50
2021-12-13 01:50:00,,0821.8,5.01,0.00,26.4,25.5,00.0,35.5,28.0,05.2,0000.0,0000.78,0004.13,0000.49
2021-12-13 01:51:00,,0821.8,5.00,0.00,26.4,25.5,00.0,35.5,28.1,05.3,0000.0,0000.79,0004.15,0000.49
2021-12-13 01:52:00,,0821.7,4.99,0.00,26.4,25.5,00.0,35.5,28.0,05.3,0000.0,0000.77,0004.13,0000.48
2021-12-13 01:53:00,,0821.7,5.00,0.00,26.3,25.4,00.0,35.4,27.9,05.2,0000.0,0000.73,0004.05,0000.48
2021-12-13 01:54:00,,0821.8,5.00,0.00,26.3,25.4,00.0,35.4,27.9,05.2,0000.0,0000.71,0004.35,0000.47
2021-12-13 01:55:00,,0821.7,5.00,0.00,26.3,25.4,00.0,35.4,27.9,05.3,0000.0,0000.68,0004.47,0000.46
2021-12-13 01:56:00,,0821.7,5.01,0.00,26.2,25.3,00.0,35.4,27.8,05.3,0000.0,0000.61,0002.66,0000.45
2021-12-13 01:57:00,,0821.7,5.00,0.00,26.2,25.3,00.0,35.4,27.8,05.3,0000.0,0000.59,0002.52,0000.44
2021-12-13 01:58:00,,0821.7,4.99,0.00,26.2,25.3,00.0,35.4,27.8,05.3,0000.0,0000.59,0002.52,0000.44
2021-12-13 01:59:00,,0821.7,5.01,0.00,26.2,25.2,00.0,35.3,27.7,05.3,0000.0,0000.58,0001.95,0000.44
